Back to catalog

KUIPER-00073

AliveCommunicationsLEO
NORAD 64820·PAYLOAD·🇺🇸 United States

Launched Jul 16, 2025 from Cape Canaveral Space Force Station

Loading…

Next Passes (next 24 hours)

TLE

FreshSource: CelesTrak SupGP

Epoch: Sep 14, 2026, 21:08 UTC

1 64820C 25151E   26257.88106482 -.00001513  00000+0 -19806-3 0  2578
2 64820  51.8989 186.4731 0001102  70.1691 143.9598 14.79934784    16

Track KUIPER-00073 in real time with AllMySat

Download on the App Store